GW1920 Weather Reports


Display with metric or nautical units.
time (UTC)temp
F
wind
direction
speed
MPH
gust
MPH
rain 1hr
in
rain 24hr
in
rain mn
in
humidity
%
barometer
mb
20260502152126 51 349 0.0 0.0 0.00 0.00 0.00 95 1007.8
20260502151623 51 339 1.0 1.0 0.00 0.00 0.00 95 1008.1
20260502151121 51 346 1.0 1.0 0.00 0.00 0.00 96 1008.2
20260502150618 51 350 0.0 0.0 0.00 0.00 0.00 96 1007.9
20260502150114 51 347 0.0 0.0 0.00 0.00 0.00 96 1007.9
20260502130503 51 1 0.0 0.0 0.00 0.00 0.00 95 1008.1
20260502123445 51 36 1.0 1.0 0.00 0.00 0.00 95 1008.1
20260502122943 51 31 0.0 1.0 0.00 0.00 0.00 94 1008.4
20260502122438 51 25 0.0 1.0 0.00 0.00 0.00 94 1008.4
20260502121937 51 22 0.0 0.0 0.00 0.00 0.00 94 1008.6
20260502121433 51 31 1.0 1.0 0.00 0.00 0.00 94 1008.3
20260502120931 51 1 0.0 0.0 0.00 0.00 0.00 93 1008.3
20260502120427 51 357 0.0 0.0 0.00 0.00 0.00 93 1008.2
20260502115925 51 15 0.0 0.0 0.00 0.00 0.00 93 1008.3
20260502115422 51 16 0.0 0.0 0.00 0.00 0.00 93 1008.5
20260502114918 51 18 0.0 1.0 0.00 0.00 0.00 94 1008.6
20260502114415 51 15 0.0 0.0 0.00 0.00 0.00 95 1008.6
20260502113912 51 15 0.0 0.0 0.00 0.00 0.00 95 1008.5
20260502113410 51 5 0.0 0.0 0.00 0.00 0.00 95 1008.6
20260502112908 51 12 0.0 0.0 0.00 0.00 0.00 94 1008.4
20260502112405 51 12 0.0 0.0 0.00 0.00 0.00 94 1008.6
20260502111902 51 9 0.0 0.0 0.00 0.00 0.00 93 1008.7
20260502111359 51 12 0.0 0.0 0.00 0.00 0.00 94 1008.6
20260502110857 51 13 0.0 0.0 0.00 0.00 0.00 94 1008.7
20260502110355 51 349 0.0 0.0 0.00 0.00 0.00 94 1008.7
20260502105852 51 17 0.0 0.0 0.00 0.00 0.00 95 1008.9
20260502105349 51 10 0.0 0.0 0.00 0.00 0.00 96 1008.8
20260502104847 51 10 0.0 0.0 0.00 0.00 0.00 96 1008.6
20260502104344 51 20 1.0 1.0 0.00 0.00 0.00 96 1008.7
20260502103840 51 13 0.0 0.0 0.00 0.00 0.00 97 1008.7
20260502103338 51 13 0.0 0.0 0.00 0.00 0.00 96 1008.9
20260502102835 51 13 0.0 0.0 0.00 0.00 0.00 96 1008.9
20260502102331 50 12 0.0 0.0 0.00 0.00 0.00 97 1009.1
20260502101829 51 14 0.0 0.0 0.00 0.00 0.00 97 1009.3
20260502101327 51 14 0.0 0.0 0.00 0.00 0.00 98 1009.2
20260502100825 51 14 0.0 0.0 0.00 0.00 0.00 98 1009.2
20260502100325 51 16 0.0 0.0 0.00 0.00 0.00 98 1009.4
20260502091258 51 10 0.0 0.0 0.00 0.00 0.00 99 1009.7
20260502090755 51 10 0.0 0.0 0.00 0.00 0.00 99 1009.6
20260502090252 51 10 0.0 0.0 0.00 0.00 0.00 99 1009.7
20260502071153 51 9 0.0 0.0 0.00 0.00 0.00 98 1010.9
20260502070651 51 9 0.0 0.0 0.00 0.00 0.00 98 1011.1
20260502070149 51 9 0.0 0.0 0.00 0.00 0.00 98 1011.2
20260502065647 51 9 0.0 0.0 0.00 0.00 0.00 98 1011.1
20260502065143 51 9 0.0 0.0 0.00 0.00 0.00 98 1011.2
20260502064643 51 9 0.0 0.0 0.00 0.00 0.00 98 1011.0
20260502064139 51 9 0.0 0.0 0.00 0.00 0.00 98 1011.2
20260502063637 51 9 0.0 0.0 0.00 0.00 0.00 98 1011.3
20260502063135 52 9 0.0 0.0 0.00 0.00 0.00 98 1011.0
20260502062631 51 9 0.0 0.0 0.00 0.00 0.00 98 1011.2
20260502062129 51 9 0.0 0.0 0.00 0.00 0.00 98 1011.2
20260502061627 51 9 0.0 0.0 0.00 0.00 0.00 98 1011.2
20260502061125 51 9 0.0 0.0 0.00 0.00 0.00 98 1011.2
20260502060624 51 9 0.0 0.0 0.00 0.00 0.00 98 1011.3
20260502060121 52 9 0.0 0.0 0.00 0.00 0.00 98 1011.7
20260502055619 51 9 0.0 0.0 0.00 0.00 0.00 97 1011.3
20260502055117 52 9 0.0 0.0 0.00 0.00 0.00 97 1011.3
20260502054616 52 8 0.0 0.0 0.00 0.00 0.00 97 1011.6
20260502054113 52 8 0.0 0.0 0.00 0.00 0.00 97 1011.7
20260502053610 52 8 0.0 0.0 0.00 0.00 0.00 97 1011.6
20260502053107 52 8 0.0 0.0 0.00 0.00 0.00 97 1011.6
20260502052605 52 6 0.0 0.0 0.00 0.00 0.00 97 1011.7
20260502052103 52 5 0.0 0.0 0.00 0.00 0.00 97 1011.6
20260502051601 52 5 0.0 0.0 0.00 0.00 0.00 97 1011.8
20260502051059 52 5 0.0 0.0 0.00 0.00 0.00 97 1011.7
20260502050554 52 5 0.0 0.0 0.00 0.00 0.00 97 1011.6
20260502050052 52 5 0.0 0.0 0.00 0.00 0.00 97 1011.7
20260502045548 52 5 0.0 0.0 0.00 0.00 0.00 97 1011.7
20260502045045 52 5 0.0 0.0 0.00 0.00 0.00 97 1011.9
20260502044542 52 2 0.0 0.0 0.00 0.00 0.00 97 1011.7
20260502044038 52 2 0.0 0.0 0.00 0.00 0.00 97 1011.8
20260502043536 52 2 0.0 0.0 0.00 0.00 0.00 97 1011.8
20260502043032 52 2 0.0 0.0 0.00 0.00 0.00 97 1011.9
20260502042527 52 6 0.0 0.0 0.00 0.00 0.00 97 1011.9
20260502042025 52 8 0.0 0.0 0.00 0.00 0.00 96 1011.8
20260502041523 52 343 0.0 0.0 0.00 0.00 0.00 96 1012.0
20260502041020 52 343 0.0 0.0 0.00 0.00 0.00 96 1011.8
20260502040516 52 343 0.0 0.0 0.00 0.00 0.00 95 1011.6
20260502040014 52 343 0.0 0.0 0.00 0.00 0.00 95 1011.8
20260502035509 52 343 0.0 0.0 0.00 0.00 0.00 95 1011.7
20260502035007 53 343 0.0 0.0 0.00 0.00 0.00 95 1011.6
20260502034505 53 342 0.0 0.0 0.00 0.00 0.00 95 1011.5
20260502034003 53 342 0.0 0.0 0.00 0.00 0.00 94 1011.5
20260502033501 53 343 0.0 0.0 0.00 0.00 0.00 94 1011.3
20260502032957 53 343 0.0 0.0 0.00 0.00 0.00 93 1011.4
20260502032454 53 342 1.0 1.0 0.00 0.00 0.00 93 1011.5
20260502031950 53 341 0.0 0.0 0.00 0.00 0.00 93 1011.5
20260502031449 53 343 0.0 0.0 0.00 0.00 0.00 93 1011.4
20260502030947 53 342 1.0 1.0 0.00 0.00 0.00 93 1011.4
20260502030445 53 336 0.0 0.0 0.00 0.00 0.00 94 1011.4
20260502025942 53 336 0.0 0.0 0.00 0.00 0.00 93 1011.3
20260502025439 53 335 0.0 0.0 0.00 0.00 0.00 93 1011.2
20260502024937 53 343 0.0 0.0 0.00 0.00 0.00 93 1011.3
20260502024435 53 342 1.0 1.0 0.00 0.00 0.00 93 1011.2
20260502023933 53 342 0.0 0.0 0.00 0.00 0.00 93 1011.1
20260502023430 53 338 0.0 0.0 0.00 0.00 0.00 93 1010.9
20260502022928 54 341 0.0 0.0 0.00 0.00 0.00 94 1011.0
20260502022424 53 341 0.0 0.0 0.00 0.00 0.00 93 1011.0
20260502021921 54 346 0.0 0.0 0.00 0.00 0.00 94 1010.9
20260502021418 54 346 0.0 0.0 0.00 0.00 0.00 94 1010.9
20260502020916 54 346 0.0 0.0 0.00 0.00 0.00 94 1011.1
20260502020413 54 347 0.0 0.0 0.00 0.00 0.00 94 1011.1
20260502015909 54 352 0.0 0.0 0.00 0.00 0.00 94 1010.9
20260502015407 54 352 0.0 0.0 0.00 0.00 0.00 94 1011.2
20260502014904 54 352 0.0 0.0 0.00 0.00 0.00 94 1011.0
20260502014401 54 352 0.0 0.0 0.00 0.00 0.00 94 1011.1
20260502013857 54 346 1.0 1.0 0.00 0.00 0.00 94 1011.0
20260502013352 54 347 1.0 1.0 0.00 0.00 0.00 94 1010.9
20260502012849 54 353 1.0 1.0 0.00 0.00 0.00 93 1011.2
20260502012347 54 345 0.0 0.0 0.00 0.00 0.00 94 1011.4
20260502011844 54 343 0.0 0.0 0.00 0.00 0.00 93 1011.4
20260502011340 54 343 0.0 0.0 0.00 0.00 0.00 93 1011.3
20260502010838 54 343 0.0 0.0 0.00 0.00 0.00 93 1011.2
20260502010334 55 343 0.0 0.0 0.00 0.00 0.00 92 1011.5
20260502005831 55 343 0.0 0.0 0.00 0.00 0.00 92 1011.5
20260502005329 55 324 0.0 0.0 0.00 0.00 0.00 92 1011.6
20260502004826 55 8 0.0 0.0 0.00 0.00 0.00 92 1011.3
20260502004322 55 1 0.0 0.0 0.00 0.00 0.00 92 1011.4
20260502003820 55 3 0.0 0.0 0.00 0.00 0.00 91 1011.4
20260502003317 54 2 0.0 0.0 0.00 0.00 0.00 91 1011.3
20260502002813 54 2 0.0 0.0 0.00 0.00 0.00 93 1011.4
20260502002310 55 0 0.0 0.0 0.00 0.00 0.00 94 1011.5
20260502001808 55 0 0.0 0.0 0.00 0.00 0.00 93 1011.6
20260502001306 55 358 0.0 0.0 0.00 0.00 0.00 93 1011.3
20260502000803 55 0 0.0 0.0 0.00 0.00 0.00 93 1011.2
20260502000302 55 10 0.0 0.0 0.00 0.00 0.00 93 1011.3
20260501235756 54 2 0.0 0.0 0.00 0.00 0.00 93 1011.2
20260501235252 54 5 0.0 0.0 0.00 0.00 0.00 93 1011.2
20260501234748 54 6 0.0 0.0 0.00 0.00 0.00 93 1011.3
20260501234245 54 340 0.0 0.0 0.00 0.00 0.00 92 1011.4
20260501233743 55 13 0.0 0.0 0.00 0.00 0.00 92 1011.6
20260501233241 55 2 0.0 0.0 0.00 0.00 0.00 91 1011.5
20260501232736 55 2 0.0 0.0 0.00 0.00 0.00 92 1011.7
20260501232233 55 342 0.0 0.0 0.00 0.00 0.00 92 1011.9
20260501231731 55 8 0.0 0.0 0.00 0.00 0.00 91 1011.7
20260501231229 54 9 0.0 0.0 0.00 0.00 0.00 91 1011.7
20260501230727 55 5 0.0 0.0 0.00 0.00 0.00 91 1011.7
20260501230226 54 346 0.0 0.0 0.00 0.00 0.00 92 1011.8
20260501225723 54 347 0.0 0.0 0.00 0.00 0.00 93 1011.8
20260501225220 54 347 0.0 0.0 0.00 0.00 0.00 93 1011.7
20260501224716 54 347 0.0 0.0 0.00 0.00 0.00 93 1011.8
20260501224214 54 345 0.0 0.0 0.00 0.00 0.00 92 1012.1
20260501223709 54 330 0.0 0.0 0.00 0.00 0.00 93 1012.1
20260501223206 53 324 1.0 1.0 0.00 0.00 0.00 93 1012.2
20260501222702 54 332 1.0 1.0 0.00 0.00 0.00 93 1012.2
20260501222200 53 338 1.0 1.0 0.00 0.00 0.00 92 1012.4
20260501221656 54 337 0.0 0.0 0.00 0.00 0.00 92 1012.4
20260501221153 54 346 0.0 0.0 0.00 0.00 0.00 92 1012.6
20260501220651 54 327 0.0 0.0 0.00 0.00 0.00 92 1012.6
20260501220148 54 336 1.0 1.0 0.00 0.00 0.00 92 1012.6
20260501215645 54 340 0.0 1.0 0.00 0.00 0.00 91 1012.4
20260501215140 54 346 0.0 0.0 0.00 0.00 0.00 91 1012.7
20260501214635 54 341 0.0 1.0 0.00 0.00 0.00 91 1012.8
20260501214131 54 347 0.0 0.0 0.00 0.00 0.00 90 1012.7
20260501213628 54 347 1.0 1.0 0.00 0.00 0.00 91 1013.2
20260501213124 54 339 3.0 3.0 0.00 0.00 0.00 92 1012.8
20260501212621 54 338 1.0 1.0 0.00 0.00 0.00 92 1012.9
20260501212118 54 338 1.0 1.0 0.00 0.00 0.00 91 1012.8
20260501211614 54 342 1.0 1.0 0.00 0.00 0.00 91 1012.9
20260501211112 54 339 0.0 0.0 0.00 0.00 0.00 92 1013.0
20260501210609 54 307 2.0 2.0 0.00 0.00 0.00 91 1012.9
20260501210105 54 339 2.0 3.0 0.00 0.00 0.00 93 1012.9
20260501205602 54 343 1.0 1.0 0.00 0.00 0.00 93 1012.9
20260501205059 54 334 1.0 1.0 0.00 0.00 0.00 93 1012.7
20260501204555 54 346 0.0 0.0 0.00 0.00 0.00 94 1012.7
20260501204051 54 344 0.0 0.0 0.00 0.00 0.00 94 1012.6
20260501203548 54 347 0.0 0.0 0.00 0.00 0.00 94 1012.6
20260501203046 54 341 0.0 1.0 0.00 0.00 0.00 94 1012.7
20260501202543 54 340 0.0 1.0 0.00 0.00 0.00 94 1012.8
20260501202039 54 335 0.0 0.0 0.00 0.00 0.00 94 1012.7
20260501201537 54 341 0.0 1.0 0.00 0.00 0.00 94 1012.6
20260501201033 54 342 2.0 2.0 0.00 0.00 0.00 93 1012.5
20260501200530 54 347 0.0 0.0 0.00 0.00 0.00 93 1012.7
20260501200027 54 348 0.0 0.0 0.00 0.00 0.00 94 1012.7
20260501195525 54 347 0.0 0.0 0.00 0.00 0.00 94 1012.8
20260501195020 54 345 0.0 0.0 0.00 0.00 0.00 95 1012.9
20260501194516 54 344 0.0 0.0 0.00 0.00 0.00 95 1012.8
20260501194012 54 337 0.0 1.0 0.00 0.00 0.00 95 1012.7
20260501193510 54 324 1.0 1.0 0.00 0.00 0.00 95 1012.9
20260501193008 54 317 1.0 1.0 0.00 0.00 0.00 95 1012.7
20260501192504 54 261 1.0 1.0 0.00 0.00 0.00 95 1012.9
20260501192003 54 344 0.0 0.0 0.00 0.00 0.00 95 1012.9
20260501191459 54 339 1.0 1.0 0.00 0.00 0.00 94 1012.9
20260501190956 54 330 0.0 0.0 0.00 0.00 0.00 94 1013.0
20260501190451 54 333 0.0 0.0 0.00 0.00 0.00 95 1013.0
20260501185947 54 347 0.0 0.0 0.00 0.00 0.00 95 1013.1
20260501185443 54 351 0.0 0.0 0.00 0.00 0.00 95 1013.0
20260501184939 54 345 0.0 0.0 0.00 0.00 0.00 94 1012.8
20260501184430 54 327 1.0 2.0 0.00 0.00 0.00 93 1012.8
20260501183925 54 338 0.0 0.0 0.00 0.00 0.00 92 1013.0
20260501183422 55 331 0.0 0.0 0.00 0.00 0.00 92 1013.0
20260501182919 55 283 1.0 1.0 0.00 0.00 0.00 91 1012.8
20260501182415 55 357 0.0 0.0 0.00 0.00 0.00 91 1012.9
20260501181912 55 5 0.0 0.0 0.00 0.00 0.00 92 1012.7
20260501181409 55 5 0.0 0.0 0.00 0.00 0.00 92 1013.0
20260501180907 54 356 0.0 0.0 0.00 0.00 0.00 93 1013.2
20260501180403 54 354 0.0 0.0 0.00 0.00 0.00 93 1013.1
20260501175900 54 6 0.0 0.0 0.00 0.00 0.00 92 1013.2
20260501175356 54 353 0.0 0.0 0.00 0.00 0.00 93 1013.3
20260501174853 54 2 0.0 0.0 0.00 0.00 0.00 94 1013.2
20260501174351 54 356 0.0 0.0 0.00 0.00 0.00 95 1013.3
20260501173849 53 354 0.0 0.0 0.00 0.00 0.00 95 1013.2
20260501173346 53 332 0.0 0.0 0.00 0.00 0.00 95 1013.1
20260501172841 53 9 0.0 0.0 0.00 0.00 0.00 96 1013.2
20260501172337 53 359 0.0 0.0 0.00 0.00 0.00 97 1013.3
20260501171832 53 358 0.0 0.0 0.00 0.00 0.00 96 1013.2
20260501171330 53 357 0.0 0.0 0.00 0.00 0.00 97 1013.3
20260501170826 53 357 0.0 0.0 0.00 0.00 0.00 98 1013.2
20260501170323 52 1 0.0 0.0 0.00 0.00 0.00 98 1013.0
20260501165820 53 355 0.0 0.0 0.00 0.00 0.00 98 1013.1
20260501165318 52 354 0.0 0.0 0.00 0.00 0.00 99 1013.1
20260501164816 52 352 0.0 0.0 0.00 0.00 0.00 99 1013.1
20260501164314 52 345 0.0 0.0 0.00 0.00 0.00 99 1013.3
20260501163809 52 356 0.0 0.0 0.00 0.00 0.00 98 1013.1
20260501163306 52 344 0.0 0.0 0.00 0.00 0.00 99 1013.1
20260501162803 52 345 0.0 0.0 0.00 0.00 0.00 98 1013.3
20260501162259 52 344 0.0 0.0 0.00 0.00 0.00 98 1013.1
20260501161756 52 357 0.0 0.0 0.00 0.00 0.00 98 1013.2
20260501161253 52 1 0.0 0.0 0.00 0.00 0.00 98 1013.2
20260501160749 52 1 0.0 0.0 0.00 0.00 0.00 99 1013.4
20260501160246 52 2 0.0 0.0 0.00 0.00 0.00 98 1013.3
20260501155738 52 1 0.0 0.0 0.00 0.00 0.00 99 1013.2
20260501155235 52 355 0.0 0.0 0.00 0.00 0.00 99 1013.2
20260501154732 52 349 0.0 0.0 0.00 0.00 0.00 99 1013.1
20260501154229 52 348 0.0 0.0 0.00 0.00 0.00 99 1013.0
20260501153726 52 4 0.0 0.0 0.00 0.00 0.00 99 1013.0
20260501153224 52 5 0.0 0.0 0.00 0.00 0.00 99 1013.1